SCP
0 0 0 0 0 0 0 0 0 0 0 0 0 0 0 0 0 0 0 0 0 0 0 0 0 0 0 0 0 0 0 0 0 0 0 0 0 0 0 0 0 0 0 0 0 0 0 0 0 0 -0 -0 -0 -0
0 0 0 0 0 0 0 0 0 0 0 0 0 0 0 0 0 0 0 0 0 0 0 0 0 0 0 0 0 0 0 0 0 0 0 0 0 0 0 0 0 0 0 0 0 0 0 0 0 0 0 0 0 0
0 0 0 0 0 0 0 0 0 0 0 0 0 0 0 0 0 0 0 0 0 0 0 0 0 0 0 0 0 0 0 0 0 0 0 0 0 0 0 0 0 0 0 0 0 0 0 0 0 0 0 0 0 0
0 0 0 0 0 0 0 0 0 0 0 0 0 0 0 0 0 0 0 0 0 0 0 0 0 0 0 0 0 0 0 0 0 0 0 0 0 0 0 0 0 0 0 0 0 0 0 0 0 0 0 0 0 0
0 0 0 0 0 0 0 0 0 0 0 0 0 0 0 0 0 0 0 0 0 0 0 0 0 0 0 0 0 0 0 0 0 0 0 0 0 0 0 0 0 0 0 0 0 0 0 0 0 0 0 0 0 0
0 0 0 0 0 0 0 0 0 0 0 0 0 0 0 0 0 0 0 0 0 0 0 0 0 0 0 0 0 0 0 0 0 0 0 0 0 0 0 0 -0 -0 0 0 0 0 0 0 0 0 0 0 0 0
0 0 0 0 0 0 0 0 0 0 0 0 0 0 0 0 0 0 0 0 0 0 0 0 0 0 0 0 0 0 0 0 0 0 0 0 0 0 0 0 -0 -0 0 0 0 0 0 0 0 0 0 0 0 0
0 0 0 0 0 0 0 0 0 0 0 0 0 0 0 0 0 0 0 0 0 0 0 0 0 0 0 0 0 0 0 0 0 0 0 0 0 0 0 0 0 0 0 0 0 0 0 0 0 0 0 0 0 0
0 0 0 0 0 0 0 0 0 0 0 0 0 0 0 0 0 0 0 0 0 0 0 0 0 0 0 0 0 0 0 0 0 0 0 0 0 0 0 0 0 0 0 0 0 0 0 0 0 0 0 0 0 0
0 0 0 0 0 0 0 0 0 0 0 0 0 0 0 0 0 0 0 0 0 0 0 0 0 0 0 0 0 0 0 0 0 0 0 0 0 0 0 0 0 0 0 0 0 0 0 0 0 0 0 0 0 0
0 0 0 0 0 0 0 0 0 0 0 0 0 0 0 0 0 0 0 0 0 0 0 0 0 0 0 0 0 0 0 0 0 0 0 0 0 0 0 0 0 0 0 0 0 0 0 0 0 0 0 0 0 0
0 0 0 0 0 0 0 0 0 0 0 0 0 0 0 0 0 0 0 0 0 0 0 0 0 0 0 0 0 0 0 0 0 0 0 0 0 0 0 0 0 0 0 0 0 0 0 0 0 0 0 0 0 0
0 0 0 0 0 0 0 0 0 0 0 0 0 0 0 0 0 0 0 0 0 0 0 0 0 0 0 0 0 0 0 0 0 0 0 0 0 0 0 0 0 0 0 0 0 0 0 0 0 0 0 0 0 0
0 0 0 0 0 0 0 0 0 0 0 0 0 0 0 0 0 0 0 0 0 0 0 0 0 0 0 0 0 0 0 0 0 0 0 0 0 0 0 -0 -0 -0 0 0 0 0 0 0 0 0 0 0 0 0
0 0 0 0 0 0 0 0 0 0 0 0 0 0 0 0 0 0 0 0 0 0 0 0 0 0 0 0 0 0 0 0 0 0 0 0 0 0 -0 -0 -0 -0 0 0 0 0 0 0 0 0 0 0 0 0
0 0 0 0 -0 0 0 0 0 0 0 0 0 0 0 0 0 0 0 0 0 0 0 0 0 0 0 0 0 0 0 0 0 0 0 0 0 0 -0 -0 -0 -0 0 0 0 0 0 0 0 0 0 0 0 0
0 0 0 -0 0 0 0 0 0 0 0 0 0 0 0 0 0 0 0 0 0 0 0 0 0 0 0 0 0 0 0 0 0 0 0 0 0 0 0 -0 0 0 0 0 0 0 0 0 0 0 0 0 0 0
0 0 0 -0 0 0 0 0 0 0 0 0 0 0 0 0 0 0 0 0 0 0 0 0 0 0 0 0 0 0 0 0 0 0 0 0 0 0 0 0 0 0 0 0 0 0 0 0 0 0 0 0 0 0
0 0 0 -0 0 0 0 0 0 0 0 0 0 0 0 0 0 0 0 0 0 0 0 0 0 0 0 0 0 0 0 0 0 0 0 0 0 0 0 0 0 0 0 0 0 0 0 0 0 0 0 0 0 0
0 0 0 0 0 0 0 0 0 0 0 0 0 0 0 0 0 0 0 0 0 0 0 0 0 0 0 0 0 0 0 0 0 0 0 0 0 0 0 0 0 0 0 0 0 0 0 0 0 0 0 0 0 0
0 0 0 0 0 0 0 0 0 0 0 0 0 0 0 0 0 0 0 0 0 0 0 0 0 0 0 0 0 0 0 0 0 0 0 0 0 0 0 0 0 0 0 0 0 0 0 0 0 0 0 0 0 0
0 0 0 0 0 0 0 0 0 0 0 0 0 0 0 0 0 0 0 0 0 0 0 0 0 0 0 0 0 0 0 0 0 0 0 0 0 0 0 0 0 0 0 0 0 0 0 0 0 0 0 0 0 0
0 0 0 0 0 0 0 0 0 0 0 0 0 0 0 0 0 0 0 0 0 0 0 0 0 0 0 0 0 0 0 0 0 0 0 0 0 0 0 0 0 0 0 0 0 0 0 0 0 0 0 0 0 0
0 0 0 0 0 0 0 0 0 0 0 0 0 0 0 0 0 0 0 0 0 0 0 0 0 0 0 0 0 0 0 0 0 0 0 0 0 0 0 0 0 0 0 0 0 0 0 0 0 0 0 0 0 0
0 0 0 0 0 0 0 0 0 0 0 0 0 0 0 0 0 0 0 0 0 0 0 0 0 0 0 0 0 0 0 0 0 0 0 0 0 0 0 0 0 0 0 0 0 0 0 0 0 0 0 0 0 0
0 0 0 0 0 0 0 0 0 0 0 0 0 0 0 0 0 0 0 0 0 0 0 0 0 0 0 0 0 0 0 0 0 0 0 0 0 0 0 0 0 0 0 0 0 0 0 0 0 0 0 0 0 0
0 0 0 0 0 0 0 0 0 0 0 0 0 0 0 0 0 0 0 0 0 0 0 0 0 0 0 0 0 0 0 0 0 0 0 0 0 0 0 0 0 0 0 0 0 0 0 0 0 0 0 0 0 0
0 0 0 0 0 0 0 0 0 0 0 0 0 0 0 0 0 0 0 0 0 0 0 0 0 0 0 0 0 0 0 0 0 0 0 0 0 0 0 0 0 0 0 0 0 0 0 0 0 0 0 0 0 0
0 0 0 0 0 0 0 0 0 0 0 0 0 0 0 0 0 0 0 0 0 0 0 0 0 0 0 0 0 0 0 0 0 0 0 0 0 0 0 0 0 0 0 0 0 0 0 0 0 0 0 0 0 0
0 0 0 0 0 0 0 0 0 0 0 0 0 0 0 0 0 0 0 0 0 0 0 0 0 0 0 0 0 0 0 0 0 0 0 0 0 0 0 0 0 0 0 0 0 0 0 0 0 0 0 0 0 0
0 0 0 0 0 0 0 0 0 0 0 0 0 0 0 0 0 0 0 0 0 0 0 0 0 0 0 0 0 0 0 0 0 0 0 0 0 0 0 0 0 0 0 0 0 0 0 0 0 0 0 0 0 0
0 0 0 0 0 0 0 0 0 0 0 0 0 0 0 0 0 0 0 0 0 0 0 0 0 0 0 0 0 0 0 0 0 0 0 0 0 0 0 0 0 0 0 0 0 0 0 0 0 0 0 0 0 0
0 0 0 0 0 0 0 0 0 0 0 0 0 0 0 0 -0 0 0 0 0 0 0 0 0 0 0 0 0 0 0 0 0 0 0 0 0 0 0 0 0 0 0 0 0 0 0 0 0 0 -0 -0 0 0
Wind_Speed_500mb
65 65 60 63 60 61 61 61 60 59 57 57 54 55 54 50 48 48 56 52 56 39 56 59 55 44 48 33 18 13 7 9 1 8 7 8 6 11 4 10 9 10 5 12 4 4 16 27 17 10 16 37 46 51
64 64 63 63 64 64 63 63 62 61 62 62 60 59 58 56 55 51 59 57 54 64 41 28 40 52 58 53 48 35 25 15 18 8 4 2 5 2 8 18 10 8 15 7 17 13 28 42 47 70 68 58 63 57
66 63 65 62 64 62 64 65 64 65 63 66 66 63 61 59 58 57 61 52 57 55 59 71 67 36 41 41 37 55 49 44 37 54 25 8 15 6 6 12 15 12 31 14 23 30 39 60 68 68 63 63 66 58
63 64 63 61 63 62 63 64 64 66 68 67 62 67 63 60 60 57 60 55 58 28 14 39 45 48 46 61 55 65 66 56 52 51 33 12 8 22 13 14 17 25 7 30 32 44 55 65 62 69 61 57 62 62
62 63 64 67 65 65 65 65 65 66 65 66 66 64 62 62 60 57 61 62 53 51 11 23 51 65 67 65 65 57 52 53 45 25 12 12 12 12 10 4 24 42 39 21 28 60 41 54 71 73 66 64 72 69
63 63 63 61 62 65 66 64 64 62 61 63 63 63 62 59 58 58 44 67 60 58 20 6 15 17 37 47 51 52 67 68 62 35 18 29 50 26 11 22 58 83 53 63 57 73 70 78 81 79 79 82 76 64
73 72 70 68 66 66 65 63 62 60 59 58 59 58 58 53 57 68 19 14 21 53 14 11 14 8 14 26 25 22 45 34 43 30 23 33 25 28 12 28 84 61 56 66 61 58 60 62 56 61 51 49 52 56
77 76 74 71 66 64 63 64 60 59 57 56 56 55 56 54 56 61 61 47 31 48 18 6 8 8 22 21 14 17 15 17 21 22 10 13 15 24 22 36 47 65 83 71 63 53 60 65 63 62 54 48 48 50
79 76 71 70 68 65 65 61 58 56 56 53 52 50 49 50 56 39 42 51 51 34 8 5 8 8 10 8 7 9 11 4 17 6 9 13 9 16 13 32 57 76 60 67 51 45 49 49 47 43 43 42 37 34
92 87 81 76 71 68 66 59 59 55 51 48 43 37 17 19 19 31 28 18 14 16 16 11 16 11 13 13 9 6 10 6 4 10 11 7 20 43 61 74 84 84 86 67 53 50 45 46 35 28 24 23 23 25
76 85 87 78 73 67 64 60 56 52 45 45 28 16 23 48 25 16 12 10 10 4 15 12 27 21 21 7 7 14 5 3 5 10 11 6 7 9 25 42 52 63 72 63 51 46 35 26 22 18 15 17 17 18
72 68 70 72 71 67 63 59 56 52 57 46 29 41 38 15 7 8 6 3 4 10 10 6 6 6 9 15 9 12 7 3 12 4 4 7 4 31 46 45 38 36 38 32 28 24 18 18 16 15 12 13 16 18
71 69 66 65 67 65 62 60 55 57 51 46 21 20 18 11 8 13 14 8 4 14 17 12 4 6 5 8 10 1 7 10 3 1 9 5 15 42 46 45 35 27 26 23 21 19 17 17 16 15 12 12 15 17
69 69 66 63 66 62 59 59 51 64 47 20 17 12 11 7 10 11 12 10 15 24 30 17 3 5 4 1 2 2 8 5 6 5 11 4 30 39 39 39 35 27 21 19 17 18 16 15 13 13 11 12 14 14
64 64 62 61 65 60 59 60 60 75 23 17 17 12 10 16 13 20 30 24 21 40 31 11 4 5 2 5 6 1 6 10 11 8 5 11 27 30 33 34 30 24 21 18 17 18 15 15 13 12 12 11 10 10
60 59 66 62 63 57 57 47 88 67 20 20 10 7 6 9 6 21 37 29 36 36 24 8 5 4 9 6 4 15 9 12 7 6 5 18 28 32 32 27 23 23 21 20 19 17 17 15 13 12 10 7 6 5
55 70 63 61 61 53 58 75 37 12 17 17 9 26 26 11 21 28 36 35 45 40 6 8 11 21 3 2 6 9 10 7 9 8 11 18 24 28 27 25 25 23 22 21 21 19 16 13 11 10 8 5 2 1
60 34 45 60 55 65 53 24 20 12 6 9 10 22 31 15 31 27 38 40 39 30 25 11 10 7 11 12 8 7 11 13 10 14 17 24 28 25 26 28 26 26 24 21 19 17 15 13 10 8 7 4 3 3
58 49 43 52 58 42 14 10 8 10 5 11 13 26 19 16 17 22 33 43 43 40 18 15 8 7 8 8 6 5 9 11 16 27 31 29 28 24 24 24 24 23 22 19 18 15 12 12 10 8 8 7 5 6
56 52 69 60 60 17 12 10 12 12 6 12 15 20 14 9 21 23 29 34 32 15 8 7 9 8 4 4 10 18 25 27 31 38 40 21 17 18 22 23 23 22 21 18 17 15 12 10 10 9 8 8 7 7
66 88 73 72 28 19 14 12 9 10 17 11 21 16 11 15 10 11 13 21 15 11 5 14 12 13 15 19 24 27 25 26 25 29 36 41 32 31 27 24 21 20 20 19 18 16 15 13 11 10 10 8 6 4
65 69 51 34 13 12 14 10 15 14 9 14 14 10 10 5 6 6 8 13 11 10 12 8 10 13 18 20 24 27 26 26 25 27 28 28 30 21 17 17 18 19 20 20 17 14 13 13 12 10 8 6 4 3
78 53 18 11 13 12 8 13 7 8 8 2 8 6 4 4 4 5 5 9 9 11 12 11 12 15 17 18 21 20 21 22 25 25 23 23 23 23 24 22 19 18 17 16 15 14 12 11 9 7 7 8 9 11
56 16 11 10 12 6 9 8 9 9 8 5 5 5 2 3 2 2 6 7 8 12 12 10 11 14 17 17 17 18 21 23 24 19 15 16 14 12 11 11 11 12 12 14 14 11 7 6 7 8 11 12 14 15
19 13 9 11 9 9 9 5 3 5 6 2 6 3 3 3 2 2 5 7 13 15 10 10 15 18 18 17 16 18 18 15 14 11 11 13 12 10 6 9 12 15 15 13 8 6 8 10 11 12 13 15 17 17
13 9 7 5 2 8 7 8 6 7 6 6 5 2 4 5 3 9 6 10 15 13 10 15 18 20 19 14 10 3 2 3 5 7 8 7 5 4 7 10 11 11 10 7 8 13 15 15 15 15 14 17 21 22
10 1 7 10 12 19 13 13 10 5 7 10 8 6 5 4 9 7 9 17 11 12 15 15 13 11 11 9 7 6 3 2 3 1 2 4 5 6 10 13 14 14 15 16 18 20 20 19 18 18 18 20 23 25
10 8 10 10 12 9 10 5 7 10 8 11 16 7 15 15 9 8 10 9 13 14 13 12 10 10 14 16 15 14 11 6 2 5 10 13 16 17 19 20 19 19 18 21 23 22 21 21 22 22 22 24 24 25
11 17 14 9 9 8 4 6 8 8 15 23 8 7 7 8 10 12 11 13 12 12 12 10 9 12 21 23 21 17 11 6 9 15 18 21 22 21 22 22 22 23 26 24 24 24 24 25 27 27 26 29 28 29
7 8 10 6 6 3 1 5 8 20 13 13 7 2 6 9 11 14 15 14 13 10 11 10 11 15 23 27 25 23 20 20 24 27 25 23 23 21 20 22 25 25 24 24 24 25 26 27 27 30 32 32 34 36
14 8 9 10 5 4 10 16 17 14 10 3 6 7 9 12 12 14 20 21 23 19 14 12 13 17 23 27 27 26 28 27 25 23 24 22 22 22 22 23 25 24 24 26 26 27 27 28 30 32 33 35 36 40
5 6 6 7 2 12 13 5 7 4 5 2 2 2 5 6 8 5 8 15 24 20 13 14 15 13 13 13 15 17 17 19 20 21 22 22 22 23 23 24 25 25 26 27 28 30 31 33 33 35 38 40 42 44
8 9 12 14 8 4 6 7 6 3 2 1 0 2 3 5 11 8 9 12 15 18 15 11 11 14 13 13 14 15 17 19 22 23 23 23 24 25 26 27 28 28 29 30 31 33 35 37 40 41 43 45 48 50
Wind_Direction_500mb
266 268 268 269 270 269 269 269 268 268 268 266 263 264 262 260 262 258 262 260 247 251 254 253 256 249 257 261 253 244 301 234 78 193 151 227 175 221 121 232 202 190 157 270 70 56 290 262 277 246 284 305 307 305
266 268 268 268 267 269 269 269 269 267 264 265 263 261 260 259 257 258 254 260 260 245 252 253 251 269 262 246 258 248 231 187 221 228 211 229 241 204 182 268 261 254 193 211 184 236 261 268 277 285 290 289 298 294
265 265 268 269 271 270 266 266 265 265 262 263 263 261 260 257 255 251 250 263 255 251 261 262 261 288 275 248 269 246 248 248 245 249 254 232 240 140 215 237 255 251 239 243 266 260 264 267 276 280 282 288 291 293
266 265 267 267 268 268 269 268 265 267 266 260 262 264 261 257 254 247 241 255 251 249 246 268 274 271 283 265 262 251 258 251 251 244 235 233 227 211 240 246 240 250 204 256 271 274 277 274 272 275 285 288 288 286
260 263 264 265 265 267 267 267 267 265 265 264 263 257 258 256 254 252 241 250 256 238 261 269 285 279 270 263 262 249 244 243 237 232 224 233 215 243 235 246 250 248 250 251 261 271 273 277 285 287 286 286 289 288
264 266 267 268 268 266 266 266 267 268 265 260 261 261 257 255 251 238 233 239 246 240 257 283 282 266 273 267 263 259 252 249 240 241 241 242 242 231 248 259 261 263 256 257 255 268 272 276 282 283 283 287 287 283
262 263 266 268 267 269 267 265 263 264 263 263 260 260 257 255 248 222 209 214 210 219 237 284 278 237 241 241 247 255 242 226 226 242 239 242 227 217 247 255 262 275 273 275 271 272 275 273 272 286 281 280 281 284
262 263 263 264 265 266 265 265 263 260 261 261 262 261 257 253 258 222 226 230 209 184 211 230 260 275 229 224 221 222 216 216 230 233 210 204 227 219 246 251 266 274 277 279 276 271 268 278 279 279 279 281 284 289
257 260 261 261 261 261 262 263 261 258 259 257 261 261 258 244 243 197 211 231 208 208 229 210 162 266 178 214 216 201 217 242 238 217 218 198 200 222 233 238 254 262 261 273 286 280 278 268 266 270 279 285 284 287
260 259 259 259 259 257 257 258 260 256 255 252 253 234 201 185 160 184 160 170 198 213 232 225 214 246 227 168 208 187 205 230 262 234 190 211 247 244 253 261 266 272 280 282 278 276 276 268 264 261 270 280 288 293
257 257 258 257 256 255 253 251 251 252 245 232 205 175 155 147 142 160 145 147 182 265 227 243 235 237 235 169 200 210 213 225 254 251 166 258 277 227 286 284 285 282 281 285 277 275 274 263 251 253 266 272 285 300
256 257 256 252 251 254 246 245 242 236 230 228 205 151 150 164 145 139 146 38 186 224 193 190 218 224 219 207 175 200 202 139 246 148 120 260 246 360 353 343 326 305 294 284 275 267 262 257 257 261 267 279 290 299
258 257 257 250 244 248 242 237 234 230 227 181 168 157 151 161 168 152 179 260 225 194 182 173 172 222 230 219 238 209 245 236 5 268 225 228 341 355 353 345 339 314 303 289 274 260 253 254 260 265 274 287 295 301
256 254 254 248 240 241 238 230 225 209 196 169 157 169 181 173 213 188 190 174 175 159 148 129 145 195 207 175 180 156 249 66 281 285 238 271 342 351 355 349 339 330 308 287 278 272 267 267 268 273 284 296 300 306
250 249 249 245 235 236 233 223 220 195 186 156 152 207 190 193 177 198 186 156 151 160 147 136 202 201 336 245 202 90 334 243 212 229 226 310 331 343 347 344 337 324 310 297 284 279 277 275 276 282 287 296 308 324
245 248 244 241 231 231 223 218 188 181 161 145 167 128 153 137 167 162 180 168 170 166 149 150 122 96 239 191 122 218 162 221 236 211 246 309 332 337 338 336 327 319 310 300 291 283 278 275 273 272 282 302 319 338
243 239 243 235 222 215 202 177 170 150 164 159 193 199 213 153 173 180 181 180 174 157 171 143 172 216 79 261 246 196 207 212 164 247 290 315 337 340 329 324 319 314 306 298 290 282 280 272 268 265 279 282 282 96
232 242 226 217 200 180 158 168 165 143 134 160 166 194 179 145 145 161 191 196 177 180 162 197 172 174 210 194 254 232 188 190 285 282 298 322 318 311 308 309 303 297 295 292 281 275 268 268 264 253 223 193 138 140
227 231 210 191 188 161 122 135 152 116 122 134 141 148 160 175 174 177 178 179 188 184 168 171 226 209 233 215 212 213 242 287 297 301 307 311 303 298 303 299 293 291 287 280 271 264 254 251 243 215 184 160 182 186
232 220 178 176 182 129 107 87 111 109 143 146 138 132 129 151 164 169 169 177 183 177 193 212 212 231 197 265 290 301 301 301 300 304 307 304 277 281 296 303 299 287 280 271 257 242 233 229 229 209 181 171 167 175
162 154 171 173 146 94 100 120 99 111 127 123 135 126 113 135 131 158 172 186 188 214 234 233 236 253 268 288 296 295 294 289 290 291 299 301 298 297 287 276 287 279 261 258 254 245 231 224 216 200 177 171 176 155
155 152 148 141 91 89 88 88 112 115 113 106 111 98 101 82 105 140 167 192 230 232 219 231 252 275 287 292 288 289 289 281 280 287 294 294 298 304 297 296 283 266 252 249 245 232 212 200 195 190 190 194 212 292
152 151 115 84 92 69 81 103 94 53 91 103 103 79 51 74 116 184 269 234 253 237 229 240 260 279 290 289 290 290 285 280 282 296 292 286 290 295 290 283 270 252 239 224 209 199 195 189 196 215 239 257 271 283
143 107 70 73 73 113 119 60 79 91 101 63 91 104 154 165 215 67 248 255 220 196 210 240 269 286 292 293 288 284 284 285 291 295 296 302 306 302 285 260 239 211 194 183 179 184 198 216 243 261 275 283 289 296
97 20 66 61 82 100 85 73 54 74 93 77 113 149 205 178 119 249 237 263 214 201 217 255 278 284 288 289 285 289 285 280 284 282 296 290 284 290 233 191 178 172 167 167 182 231 272 278 281 285 290 297 301 304
78 0 53 165 117 111 166 112 131 126 117 130 185 165 146 105 113 240 231 201 191 204 257 281 287 280 279 277 298 277 230 286 297 298 295 271 218 203 212 196 192 195 214 246 277 294 296 292 292 295 300 305 308 309
109 125 83 88 98 112 87 76 99 110 151 167 172 148 104 157 244 248 196 188 207 271 284 289 288 269 254 240 204 177 152 52 35 51 130 194 225 230 236 248 255 267 274 282 295 301 300 299 300 302 310 307 304 306
100 125 125 125 86 67 112 99 145 184 176 162 138 172 173 192 227 167 169 210 266 281 286 286 271 247 208 192 179 159 138 115 46 312 292 282 271 262 260 265 271 276 280 293 296 294 296 298 296 300 302 301 305 310
73 121 117 70 78 70 89 149 178 158 149 170 143 190 233 212 190 197 250 264 262 260 263 265 251 221 199 193 190 189 195 236 302 315 303 292 284 278 275 273 277 281 290 293 293 293 295 296 299 304 304 302 309 314
107 127 91 97 112 140 121 136 134 146 143 151 153 209 251 256 254 254 253 246 242 252 249 249 237 219 207 210 217 229 243 265 286 294 291 288 282 284 274 274 282 287 289 289 288 287 286 288 292 294 298 305 308 309
126 121 93 66 90 91 125 124 129 139 143 170 249 261 275 295 292 269 239 228 226 235 241 238 232 223 220 223 233 249 263 273 278 282 283 278 278 279 279 283 286 287 286 286 287 288 289 290 292 298 302 304 307 309
83 77 115 110 113 133 125 121 130 125 150 196 256 280 303 293 280 251 230 223 219 223 223 227 232 235 221 227 245 255 264 278 289 290 287 284 280 274 278 284 285 284 284 286 288 289 290 294 297 301 304 307 309 311
102 88 88 107 113 150 143 129 69 65 141 141 0 322 270 265 251 233 228 218 207 202 212 216 210 223 237 250 266 277 288 297 302 302 298 290 284 280 284 288 289 288 287 287 288 290 294 297 299 302 304 306 306 306
Wind_Speed_850mb
65 65 60 63 60 61 61 61 60 59 57 57 54 55 54 50 48 48 56 52 56 39 56 59 55 44 48 33 18 13 7 9 1 8 7 8 6 11 4 10 9 10 5 12 4 4 16 27 17 10 16 37 46 51
64 64 63 63 64 64 63 63 62 61 62 62 60 59 58 56 55 51 59 57 54 64 41 28 40 52 58 53 48 35 25 15 18 8 4 2 5 2 8 18 10 8 15 7 17 13 28 42 47 70 68 58 63 57
66 63 65 62 64 62 64 65 64 65 63 66 66 63 61 59 58 57 61 52 57 55 59 71 67 36 41 41 37 55 49 44 37 54 25 8 15 6 6 12 15 12 31 14 23 30 39 60 68 68 63 63 66 58
63 64 63 61 63 62 63 64 64 66 68 67 62 67 63 60 60 57 60 55 58 28 14 39 45 48 46 61 55 65 66 56 52 51 33 12 8 22 13 14 17 25 7 30 32 44 55 65 62 69 61 57 62 62
62 63 64 67 65 65 65 65 65 66 65 66 66 64 62 62 60 57 61 62 53 51 11 23 51 65 67 65 65 57 52 53 45 25 12 12 12 12 10 4 24 42 39 21 28 60 41 54 71 73 66 64 72 69
63 63 63 61 62 65 66 64 64 62 61 63 63 63 62 59 58 58 44 67 60 58 20 6 15 17 37 47 51 52 67 68 62 35 18 29 50 26 11 22 58 83 53 63 57 73 70 78 81 79 79 82 76 64
73 72 70 68 66 66 65 63 62 60 59 58 59 58 58 53 57 68 19 14 21 53 14 11 14 8 14 26 25 22 45 34 43 30 23 33 25 28 12 28 84 61 56 66 61 58 60 62 56 61 51 49 52 56
77 76 74 71 66 64 63 64 60 59 57 56 56 55 56 54 56 61 61 47 31 48 18 6 8 8 22 21 14 17 15 17 21 22 10 13 15 24 22 36 47 65 83 71 63 53 60 65 63 62 54 48 48 50
79 76 71 70 68 65 65 61 58 56 56 53 52 50 49 50 56 39 42 51 51 34 8 5 8 8 10 8 7 9 11 4 17 6 9 13 9 16 13 32 57 76 60 67 51 45 49 49 47 43 43 42 37 34
92 87 81 76 71 68 66 59 59 55 51 48 43 37 17 19 19 31 28 18 14 16 16 11 16 11 13 13 9 6 10 6 4 10 11 7 20 43 61 74 84 84 86 67 53 50 45 46 35 28 24 23 23 25
76 85 87 78 73 67 64 60 56 52 45 45 28 16 23 48 25 16 12 10 10 4 15 12 27 21 21 7 7 14 5 3 5 10 11 6 7 9 25 42 52 63 72 63 51 46 35 26 22 18 15 17 17 18
72 68 70 72 71 67 63 59 56 52 57 46 29 41 38 15 7 8 6 3 4 10 10 6 6 6 9 15 9 12 7 3 12 4 4 7 4 31 46 45 38 36 38 32 28 24 18 18 16 15 12 13 16 18
71 69 66 65 67 65 62 60 55 57 51 46 21 20 18 11 8 13 14 8 4 14 17 12 4 6 5 8 10 1 7 10 3 1 9 5 15 42 46 45 35 27 26 23 21 19 17 17 16 15 12 12 15 17
69 69 66 63 66 62 59 59 51 64 47 20 17 12 11 7 10 11 12 10 15 24 30 17 3 5 4 1 2 2 8 5 6 5 11 4 30 39 39 39 35 27 21 19 17 18 16 15 13 13 11 12 14 14
64 64 62 61 65 60 59 60 60 75 23 17 17 12 10 16 13 20 30 24 21 40 31 11 4 5 2 5 6 1 6 10 11 8 5 11 27 30 33 34 30 24 21 18 17 18 15 15 13 12 12 11 10 10
60 59 66 62 63 57 57 47 88 67 20 20 10 7 6 9 6 21 37 29 36 36 24 8 5 4 9 6 4 15 9 12 7 6 5 18 28 32 32 27 23 23 21 20 19 17 17 15 13 12 10 7 6 5
55 70 63 61 61 53 58 75 37 12 17 17 9 26 26 11 21 28 36 35 45 40 6 8 11 21 3 2 6 9 10 7 9 8 11 18 24 28 27 25 25 23 22 21 21 19 16 13 11 10 8 5 2 1
60 34 45 60 55 65 53 24 20 12 6 9 10 22 31 15 31 27 38 40 39 30 25 11 10 7 11 12 8 7 11 13 10 14 17 24 28 25 26 28 26 26 24 21 19 17 15 13 10 8 7 4 3 3
58 49 43 52 58 42 14 10 8 10 5 11 13 26 19 16 17 22 33 43 43 40 18 15 8 7 8 8 6 5 9 11 16 27 31 29 28 24 24 24 24 23 22 19 18 15 12 12 10 8 8 7 5 6
56 52 69 60 60 17 12 10 12 12 6 12 15 20 14 9 21 23 29 34 32 15 8 7 9 8 4 4 10 18 25 27 31 38 40 21 17 18 22 23 23 22 21 18 17 15 12 10 10 9 8 8 7 7
66 88 73 72 28 19 14 12 9 10 17 11 21 16 11 15 10 11 13 21 15 11 5 14 12 13 15 19 24 27 25 26 25 29 36 41 32 31 27 24 21 20 20 19 18 16 15 13 11 10 10 8 6 4
65 69 51 34 13 12 14 10 15 14 9 14 14 10 10 5 6 6 8 13 11 10 12 8 10 13 18 20 24 27 26 26 25 27 28 28 30 21 17 17 18 19 20 20 17 14 13 13 12 10 8 6 4 3
78 53 18 11 13 12 8 13 7 8 8 2 8 6 4 4 4 5 5 9 9 11 12 11 12 15 17 18 21 20 21 22 25 25 23 23 23 23 24 22 19 18 17 16 15 14 12 11 9 7 7 8 9 11
56 16 11 10 12 6 9 8 9 9 8 5 5 5 2 3 2 2 6 7 8 12 12 10 11 14 17 17 17 18 21 23 24 19 15 16 14 12 11 11 11 12 12 14 14 11 7 6 7 8 11 12 14 15
19 13 9 11 9 9 9 5 3 5 6 2 6 3 3 3 2 2 5 7 13 15 10 10 15 18 18 17 16 18 18 15 14 11 11 13 12 10 6 9 12 15 15 13 8 6 8 10 11 12 13 15 17 17
13 9 7 5 2 8 7 8 6 7 6 6 5 2 4 5 3 9 6 10 15 13 10 15 18 20 19 14 10 3 2 3 5 7 8 7 5 4 7 10 11 11 10 7 8 13 15 15 15 15 14 17 21 22
10 1 7 10 12 19 13 13 10 5 7 10 8 6 5 4 9 7 9 17 11 12 15 15 13 11 11 9 7 6 3 2 3 1 2 4 5 6 10 13 14 14 15 16 18 20 20 19 18 18 18 20 23 25
10 8 10 10 12 9 10 5 7 10 8 11 16 7 15 15 9 8 10 9 13 14 13 12 10 10 14 16 15 14 11 6 2 5 10 13 16 17 19 20 19 19 18 21 23 22 21 21 22 22 22 24 24 25
11 17 14 9 9 8 4 6 8 8 15 23 8 7 7 8 10 12 11 13 12 12 12 10 9 12 21 23 21 17 11 6 9 15 18 21 22 21 22 22 22 23 26 24 24 24 24 25 27 27 26 29 28 29
7 8 10 6 6 3 1 5 8 20 13 13 7 2 6 9 11 14 15 14 13 10 11 10 11 15 23 27 25 23 20 20 24 27 25 23 23 21 20 22 25 25 24 24 24 25 26 27 27 30 32 32 34 36
14 8 9 10 5 4 10 16 17 14 10 3 6 7 9 12 12 14 20 21 23 19 14 12 13 17 23 27 27 26 28 27 25 23 24 22 22 22 22 23 25 24 24 26 26 27 27 28 30 32 33 35 36 40
5 6 6 7 2 12 13 5 7 4 5 2 2 2 5 6 8 5 8 15 24 20 13 14 15 13 13 13 15 17 17 19 20 21 22 22 22 23 23 24 25 25 26 27 28 30 31 33 33 35 38 40 42 44
8 9 12 14 8 4 6 7 6 3 2 1 0 2 3 5 11 8 9 12 15 18 15 11 11 14 13 13 14 15 17 19 22 23 23 23 24 25 26 27 28 28 29 30 31 33 35 37 40 41 43 45 48 50
Wind_Direction_850mb
266 268 268 269 270 269 269 269 268 268 268 266 263 264 262 260 262 258 262 260 247 251 254 253 256 249 257 261 253 244 301 234 78 193 151 227 175 221 121 232 202 190 157 270 70 56 290 262 277 246 284 305 307 305
266 268 268 268 267 269 269 269 269 267 264 265 263 261 260 259 257 258 254 260 260 245 252 253 251 269 262 246 258 248 231 187 221 228 211 229 241 204 182 268 261 254 193 211 184 236 261 268 277 285 290 289 298 294
265 265 268 269 271 270 266 266 265 265 262 263 263 261 260 257 255 251 250 263 255 251 261 262 261 288 275 248 269 246 248 248 245 249 254 232 240 140 215 237 255 251 239 243 266 260 264 267 276 280 282 288 291 293
266 265 267 267 268 268 269 268 265 267 266 260 262 264 261 257 254 247 241 255 251 249 246 268 274 271 283 265 262 251 258 251 251 244 235 233 227 211 240 246 240 250 204 256 271 274 277 274 272 275 285 288 288 286
260 263 264 265 265 267 267 267 267 265 265 264 263 257 258 256 254 252 241 250 256 238 261 269 285 279 270 263 262 249 244 243 237 232 224 233 215 243 235 246 250 248 250 251 261 271 273 277 285 287 286 286 289 288
264 266 267 268 268 266 266 266 267 268 265 260 261 261 257 255 251 238 233 239 246 240 257 283 282 266 273 267 263 259 252 249 240 241 241 242 242 231 248 259 261 263 256 257 255 268 272 276 282 283 283 287 287 283
262 263 266 268 267 269 267 265 263 264 263 263 260 260 257 255 248 222 209 214 210 219 237 284 278 237 241 241 247 255 242 226 226 242 239 242 227 217 247 255 262 275 273 275 271 272 275 273 272 286 281 280 281 284
262 263 263 264 265 266 265 265 263 260 261 261 262 261 257 253 258 222 226 230 209 184 211 230 260 275 229 224 221 222 216 216 230 233 210 204 227 219 246 251 266 274 277 279 276 271 268 278 279 279 279 281 284 289
257 260 261 261 261 261 262 263 261 258 259 257 261 261 258 244 243 197 211 231 208 208 229 210 162 266 178 214 216 201 217 242 238 217 218 198 200 222 233 238 254 262 261 273 286 280 278 268 266 270 279 285 284 287
260 259 259 259 259 257 257 258 260 256 255 252 253 234 201 185 160 184 160 170 198 213 232 225 214 246 227 168 208 187 205 230 262 234 190 211 247 244 253 261 266 272 280 282 278 276 276 268 264 261 270 280 288 293
257 257 258 257 256 255 253 251 251 252 245 232 205 175 155 147 142 160 145 147 182 265 227 243 235 237 235 169 200 210 213 225 254 251 166 258 277 227 286 284 285 282 281 285 277 275 274 263 251 253 266 272 285 300
256 257 256 252 251 254 246 245 242 236 230 228 205 151 150 164 145 139 146 38 186 224 193 190 218 224 219 207 175 200 202 139 246 148 120 260 246 360 353 343 326 305 294 284 275 267 262 257 257 261 267 279 290 299
258 257 257 250 244 248 242 237 234 230 227 181 168 157 151 161 168 152 179 260 225 194 182 173 172 222 230 219 238 209 245 236 5 268 225 228 341 355 353 345 339 314 303 289 274 260 253 254 260 265 274 287 295 301
256 254 254 248 240 241 238 230 225 209 196 169 157 169 181 173 213 188 190 174 175 159 148 129 145 195 207 175 180 156 249 66 281 285 238 271 342 351 355 349 339 330 308 287 278 272 267 267 268 273 284 296 300 306
250 249 249 245 235 236 233 223 220 195 186 156 152 207 190 193 177 198 186 156 151 160 147 136 202 201 336 245 202 90 334 243 212 229 226 310 331 343 347 344 337 324 310 297 284 279 277 275 276 282 287 296 308 324
245 248 244 241 231 231 223 218 188 181 161 145 167 128 153 137 167 162 180 168 170 166 149 150 122 96 239 191 122 218 162 221 236 211 246 309 332 337 338 336 327 319 310 300 291 283 278 275 273 272 282 302 319 338
243 239 243 235 222 215 202 177 170 150 164 159 193 199 213 153 173 180 181 180 174 157 171 143 172 216 79 261 246 196 207 212 164 247 290 315 337 340 329 324 319 314 306 298 290 282 280 272 268 265 279 282 282 96
232 242 226 217 200 180 158 168 165 143 134 160 166 194 179 145 145 161 191 196 177 180 162 197 172 174 210 194 254 232 188 190 285 282 298 322 318 311 308 309 303 297 295 292 281 275 268 268 264 253 223 193 138 140
227 231 210 191 188 161 122 135 152 116 122 134 141 148 160 175 174 177 178 179 188 184 168 171 226 209 233 215 212 213 242 287 297 301 307 311 303 298 303 299 293 291 287 280 271 264 254 251 243 215 184 160 182 186
232 220 178 176 182 129 107 87 111 109 143 146 138 132 129 151 164 169 169 177 183 177 193 212 212 231 197 265 290 301 301 301 300 304 307 304 277 281 296 303 299 287 280 271 257 242 233 229 229 209 181 171 167 175
162 154 171 173 146 94 100 120 99 111 127 123 135 126 113 135 131 158 172 186 188 214 234 233 236 253 268 288 296 295 294 289 290 291 299 301 298 297 287 276 287 279 261 258 254 245 231 224 216 200 177 171 176 155
155 152 148 141 91 89 88 88 112 115 113 106 111 98 101 82 105 140 167 192 230 232 219 231 252 275 287 292 288 289 289 281 280 287 294 294 298 304 297 296 283 266 252 249 245 232 212 200 195 190 190 194 212 292
152 151 115 84 92 69 81 103 94 53 91 103 103 79 51 74 116 184 269 234 253 237 229 240 260 279 290 289 290 290 285 280 282 296 292 286 290 295 290 283 270 252 239 224 209 199 195 189 196 215 239 257 271 283
143 107 70 73 73 113 119 60 79 91 101 63 91 104 154 165 215 67 248 255 220 196 210 240 269 286 292 293 288 284 284 285 291 295 296 302 306 302 285 260 239 211 194 183 179 184 198 216 243 261 275 283 289 296
97 20 66 61 82 100 85 73 54 74 93 77 113 149 205 178 119 249 237 263 214 201 217 255 278 284 288 289 285 289 285 280 284 282 296 290 284 290 233 191 178 172 167 167 182 231 272 278 281 285 290 297 301 304
78 0 53 165 117 111 166 112 131 126 117 130 185 165 146 105 113 240 231 201 191 204 257 281 287 280 279 277 298 277 230 286 297 298 295 271 218 203 212 196 192 195 214 246 277 294 296 292 292 295 300 305 308 309
109 125 83 88 98 112 87 76 99 110 151 167 172 148 104 157 244 248 196 188 207 271 284 289 288 269 254 240 204 177 152 52 35 51 130 194 225 230 236 248 255 267 274 282 295 301 300 299 300 302 310 307 304 306
100 125 125 125 86 67 112 99 145 184 176 162 138 172 173 192 227 167 169 210 266 281 286 286 271 247 208 192 179 159 138 115 46 312 292 282 271 262 260 265 271 276 280 293 296 294 296 298 296 300 302 301 305 310
73 121 117 70 78 70 89 149 178 158 149 170 143 190 233 212 190 197 250 264 262 260 263 265 251 221 199 193 190 189 195 236 302 315 303 292 284 278 275 273 277 281 290 293 293 293 295 296 299 304 304 302 309 314
107 127 91 97 112 140 121 136 134 146 143 151 153 209 251 256 254 254 253 246 242 252 249 249 237 219 207 210 217 229 243 265 286 294 291 288 282 284 274 274 282 287 289 289 288 287 286 288 292 294 298 305 308 309
126 121 93 66 90 91 125 124 129 139 143 170 249 261 275 295 292 269 239 228 226 235 241 238 232 223 220 223 233 249 263 273 278 282 283 278 278 279 279 283 286 287 286 286 287 288 289 290 292 298 302 304 307 309
83 77 115 110 113 133 125 121 130 125 150 196 256 280 303 293 280 251 230 223 219 223 223 227 232 235 221 227 245 255 264 278 289 290 287 284 280 274 278 284 285 284 284 286 288 289 290 294 297 301 304 307 309 311
102 88 88 107 113 150 143 129 69 65 141 141 0 322 270 265 251 233 228 218 207 202 212 216 210 223 237 250 266 277 288 297 302 302 298 290 284 280 284 288 289 288 287 287 288 290 294 297 299 302 304 306 306 306